Main page
Satellite images Climate Cyclones Lightning AirportsFAQ Languages Contact Newsletter About
Weather : Europe Africa North America South America Asia Australia-Oceania Others

, Ranong, Ranong Airport

48532

latitude: , longitude: Thailand, elevation: 09-59N m


METAR: VTSR 211100Z VRB07KT 8000 R02///// BKN018 BKN025 24/23 Q1007